#timestamp,LO_Frequency,Hit,StdDev 
1702051215.1,286047000.0,N
1702051216.0,286047000.0,N
1702051235.8,286046999.7,N
1702051255.6,286047002.1,N
1702051275.5,286047002.3,N
1702051295.3,286046999.7,N
1702051315.2,286047002.8,N
1702051335.9,286047002.7,N
1702051355.7,286047002.0,N
1702051375.6,286047000.1,N
1702051395.4,286046999.8,N
1702051415.2,286047000.1,N
1702051435.1,286047002.3,N
1702051436.0,286047002.3,N
1702051455.8,286046999.7,N
1702051475.7,286046999.7,N
1702051495.5,286047000.1,N
1702051515.3,286046999.9,N
1702051535.2,286047000.3,N
1702051555.0,286046999.8,N
1702051555.9,286046999.8,N
1702051575.7,286047002.8,N
1702051595.6,286047002.3,N
1702051615.4,286047002.4,N
1702051635.3,286046999.8,N
1702051655.1,286047000.1,N
1702051656.0,286047000.1,N
1702051675.8,286047001.9,N
1702051695.7,286047001.5,N
1702051715.5,286047002.0,N
1702051735.4,286047001.7,N
1702051755.2,286047001.4,N
1702051775.0,286047002.0,N
1702051775.9,286047002.0,N
1702051795.8,286047001.7,N
1702051815.6,286047002.2,N
1702051835.4,286047000.3,N
1702051855.3,286047002.8,N
1702051875.1,286047002.4,N
1702051895.9,286047002.6,N
1702051915.7,286047001.8,N
1702051935.5,286047004.2,Y
1702051955.4,286047002.1,P
1702051975.2,286047000.5,N
1702051995.0,286047000.3,N
1702051995.9,286047000.3,N
1702052015.8,286047001.0,N
1702052035.6,286047000.1,N
1702052055.5,286047002.0,N
1702052075.3,286047001.3,N
1702052095.1,286047002.2,Y
1702052115.9,286047001.0,P
1702052135.7,286046998.3,P
1702052155.5,286046998.5,N
1702052175.4,286046998.8,N
1702052195.2,286046998.8,N
1702052215.1,286046996.7,N
1702052216.0,286046996.7,N
1702052235.8,286046996.7,N
1702052255.6,286046999.3,N
1702052275.5,286046999.5,N
1702052295.3,286046998.3,N
1702052315.1,286046998.7,N
1702052335.9,286046999.2,N
1702052355.7,286046999.4,N
1702052375.6,286046999.6,N
1702052395.4,286046996.9,N
1702052415.2,286046997.2,N
1702052435.1,286046999.1,N
1702052436.0,286046999.1,N
1702052455.8,286046999.1,N
1702052475.6,286046999.1,N
1702052495.5,286046999.1,N
1702052515.3,286046999.4,N
1702052535.2,286046996.6,N
1702052555.9,286046996.7,N
1702052575.7,286046999.5,N
1702052595.6,286046999.1,N
1702052615.4,286046999.3,N
1702052635.2,286046998.9,N
1702052655.1,286046998.4,N
1702052656.0,286046998.4,N
1702052675.8,286046998.3,N
1702052695.7,286046998.5,N
1702052715.5,286046999.3,N
1702052735.3,286046999.4,N
1702052755.2,286046997.0,N
1702052775.0,286046999.6,N
1702052775.9,286046999.6,N
1702052795.8,286046997.2,Y
1702052815.6,286046998.7,P
1702052835.4,286046998.8,P
1702052855.3,286047000.5,P
1702052875.1,286047001.0,N
1702052895.8,286046998.1,N
1702052915.7,286047002.8,N
1702052935.5,286047002.3,N
1702052955.4,286047000.1,N
1702052975.2,286046999.9,N
1702052995.0,286047000.9,N
1702052995.9,286047000.9,N
1702053015.8,286047002.7,N
1702053035.6,286047002.5,N
1702053055.5,286046999.7,N
1702053075.3,286047002.6,N
1702053095.1,286047000.6,N
1702053115.9,286047000.3,N
1702053135.7,286046998.2,N
1702053155.6,286046999.9,N
1702053175.4,286046999.7,N
1702053195.2,286047002.6,N
1702053215.1,286047000.9,N
1702053216.0,286047000.9,N
1702053235.8,286047000.1,N
1702053255.7,286047000.8,N
1702053275.5,286046999.8,N
1702053295.3,286047000.4,N
1702053315.2,286047002.0,N
1702053335.9,286047002.1,N
1702053355.7,286047001.5,N
1702053375.6,286047001.5,N
1702053395.4,286047002.0,N
1702053415.2,286047002.0,N
1702053435.1,286047002.8,N
1702053436.0,286047002.8,N
1702053455.8,286047001.9,N
1702053475.7,286046999.7,N
1702053495.5,286047000.8,N
1702053515.3,286046999.9,N
1702053535.2,286047000.7,N
1702053555.0,286047000.1,N
1702053555.9,286047000.1,N
1702053575.8,286047001.9,N
1702053595.6,286047003.9,Y
1702053615.4,286047002.4,P
1702053635.3,286047000.1,N
1702053655.1,286047000.1,N
1702053675.8,286047002.7,N
1702053695.7,286047002.1,N
1702053715.5,286046999.7,N
1702053735.4,286047002.4,N
1702053755.2,286047002.2,N
1702053775.0,286047002.6,N
1702053775.9,286047002.6,N
1702053795.8,286047002.5,N
1702053815.6,286047002.1,N
1702053835.4,286047002.7,N
1702053855.3,286047002.7,N
1702053875.1,286047002.6,N
1702053895.9,286047002.6,N
1702053915.7,286047002.1,N
1702053935.5,286047002.2,N
1702053955.4,286047001.9,N
1702053975.2,286047002.0,N
1702053995.0,286047001.6,N
1702053995.9,286047001.6,N
1702054015.8,286047000.3,N
1702054035.6,286046998.1,N
1702054055.5,286047000.0,N
1702054075.3,286046998.2,N
1702054095.1,286047000.0,N
1702054115.9,286047001.2,N
1702054135.7,286046999.3,N
1702054155.6,286046999.0,N
1702054175.4,286046996.8,N
1702054195.2,286046999.4,N
1702054215.1,286046999.6,N
1702054216.0,286046999.6,N
1702054235.8,286046999.5,N
1702054255.6,286046996.7,N
1702054275.5,286046999.0,N
1702054295.3,286046999.4,N
1702054315.2,286046998.9,N
1702054335.9,286046999.3,N
1702054355.7,286046998.8,N
1702054375.6,286046998.7,N
1702054395.4,286046998.6,N
1702054415.3,286047001.0,N
1702054435.1,286047000.4,N
1702054436.0,286047000.4,N
1702054455.8,286046998.1,N
1702054475.7,286047000.7,N
1702054495.5,286047002.8,N
1702054515.3,286047001.7,N
1702054535.2,286047004.3,Y
1702054555.0,286047001.8,P
1702054555.9,286047001.8,N
1702054575.8,286047002.7,N
1702054595.6,286047000.2,N
1702054615.4,286047000.4,N
1702054635.3,286047000.6,N
1702054655.1,286047002.8,N
1702054675.8,286047000.7,N
1702054695.7,286046999.9,N
1702054715.5,286047002.4,N
1702054735.4,286047002.0,N
1702054755.2,286047002.7,N
1702054775.0,286046999.7,N
1702054775.9,286046999.7,N
1702054795.8,286047002.0,N
